Content
SEND FEEDBACK

Daily
Averages
Monthly
Summary
Japan

IWO JIMA, JAPAN


Home > Asia > Japan
Elevation: 353 feet     Latitude: 24 47N     Longitude: 141 19E

WEATHER
 
SELECT A DAY
Number of Records: 107,444;   Date Range: 7/1/96 - 10/24/14
 
SHARE

PRINT THIS DATA

[ ← Previous Day ]
WEATHER ALMANAC - JANUARY 3, 2013
[ Next Day → ]
[ °C ]   °F
Weather ElementAverageHighLow
Temperature69 °F71.6 °F (12:00 pm)68 °F (4:00 am)
Dewpoint64.1 °F64.4 °F (4:00 am)62.6 °F (6:00 pm)
Humidity84.3 %88 % (4:00 am)78 % (12:00 pm)
Barometer30.06 in30.12 in (9:00 am)30.01 in (2:00 pm)
Wind Speed13.5 mph16.1 mph (4:00 am)
Weather ElementAverage
Visibility4.4 mi
Wind DirectionENE (52.6 °)

Weather ElementTotal
Precipitation---
Cooling Degree Days4.8 (Base 65)
Growing Degree Days19.8 (Base 50)
Averaged from 23 records on January 3, 2013
WEATHER CONDITIONS BREAKOUT
WIND DIRECTION BREAKOUT
WEATHER BY HOUR - JANUARY 3, 2013
[ °C ]   °F
Local TimeTemperatureDewpointHumidityBarometerVisibilityWind DirectionWind SpeedGust SpeedPrecipitationEventsConditions
4:00 AM68.0 °F64.4 °F88 %30.06 in2.5 miENE (70°)16.1 mphRainLight Rain Showers
6:00 AM68.0 °F64.4 °F88 %30.06 in1.9 miENE (70°)16.1 mphRainLight Rain
7:00 AM68.0 °F64.4 °F88 %30.09 in1.6 miNE (50°)16.1 mphRainLight Rain
8:00 AM68.0 °F64.4 °F88 %30.09 in1.6 miNE (50°)13.8 mphRainLight Rain
8:50 AM68.0 °F64.4 °F88 %30.09 inNE (50°)13.8 mphRainLight Rain
9:00 AM68.0 °F64.4 °F88 %30.12 in2.8 miENE (60°)13.8 mphRainLight Rain
9:05 AM68.0 °F64.4 °F88 %30.09 in3.1 miENE (60°)15.0 mphMostly Cloudy
10:00 AM69.8 °F64.4 °F83 %30.12 in6.2 miNE (50°)12.7 mphMostly Cloudy
11:00 AM69.8 °F64.4 °F83 %30.09 in6.2 miENE (70°)13.8 mphMostly Cloudy
11:17 AM69.8 °F64.4 °F83 %30.09 in5.0 miENE (60°)13.8 mphRainLight Rain Showers
11:31 AM69.8 °F64.4 °F83 %30.06 in6.2 miENE (60°)13.8 mphMostly Cloudy
12:00 PM71.6 °F64.4 °F78 %30.06 in6.2 miENE (60°)12.7 mphMostly Cloudy
1:00 PM71.6 °F64.4 °F78 %30.04 in6.2 miENE (70°)12.7 mphMostly Cloudy
2:00 PM71.6 °F64.4 °F78 %30.01 in6.2 miENE (70°)12.7 mphMostly Cloudy
3:00 PM69.8 °F64.4 °F83 %30.01 in6.2 miNE (40°)11.5 mphMostly Cloudy
4:00 PM69.8 °F64.4 °F83 %30.01 in6.2 miNE (40°)11.5 mphMostly Cloudy
5:00 PM69.8 °F64.4 °F83 %30.01 in4.3 miNNE (30°)11.5 mphRainLight Rain Showers
5:50 PM68.0 °F64.4 °F88 %30.01 inNE (40°)15.0 mphRainLight Rain Showers
6:00 PM68.0 °F62.6 °F83 %30.01 in2.8 miNE (40°)15.0 mphRainLight Rain Showers
6:22 PM68.0 °F62.6 °F83 %30.01 in3.1 miNE (40°)12.7 mphRainLight Rain Showers
6:42 PM68.0 °F62.6 °F83 %30.04 in6.2 miNE (40°)11.5 mphRainLight Rain Showers
7:00 PM68.0 °F62.6 °F83 %30.04 in6.2 miNE (40°)12.7 mphRainLight Rain Showers
10:00 PM68.0 °F64.4 °F88 %30.06 in2.5 miNE (50°)11.5 mphRainLight Rain Showers
Hourly data recorded from RJAW, located miles away from Iwo Jima, Japan







STORIES FROM OUR PARTNERS